Regional Weather Roundup
Issued by NWS Kansas City/Pleasant Hill, MO

Home | Current Version | Previous Version | Graphics & Text | Print | Product List | Glossary Off
Versions: 1 2 3 4 5 6 7 8 9 10 11 12 13 14 15 16 17 18 19 20 21 22 23 24 25 26 27 28 29 30 31 32 33 34 35 36 37 38 39 40 41 42 43 44 45 46 47 48 49 50

000
ASUS43 KEAX 251510
RWREAX

WEATHER ROUNDUP FOR EASTERN KANSAS AND NORTHWEST MISSOURI
NATIONAL WEATHER SERVICE KANSAS CITY/PLEASANT HILL MO
1000 AM CDT THU MAY 25 2017

KSZ040-057-103>105-MOZ028-029-037-043-251600-
...KANSAS CITY METROPOLITAN AREA...

CITY           SKY/WX    TMP DP  RH WIND       PRES   REMARKS
K.C. INTL      MOSUNNY   65  52  62 S12       29.72R
K.C. DOWNTOWN  SUNNY     67  51  56 S9        29.72S
LEES SUMMIT    SUNNY     65  51  60 S10       29.73S
OLATHE - IXD   SUNNY     65  50  58 S12G21    29.73S
OLATHE - OJC   SUNNY     64  52  64 S14       29.72S
LAWRENCE       SUNNY     66  51  58 SE17      29.71S

$$

MOZ001>008-011>017-020>025-030>033-038>040-044>046-053-054-251600-
...NORTHERN AND CENTRAL MISSOURI...

CITY           SKY/WX    TMP DP  RH WIND       PRES   REMARKS
ST. JOSEPH     SUNNY     66  52  60 S12       29.71S
WARRENSBURG    SUNNY     63  52  67 S9        29.74S
WHITEMAN AFB   MOSUNNY   64  56  76 SW12      29.74S
CLINTON        SUNNY     63  54  72 S7        29.76S
SEDALIA        MOSUNNY   66  57  72 SW8       29.76R
WARSAW         NOT AVBL
CHILLICOTHE      N/A     63  53  70 S5        29.74R
KIRKSVILLE     SUNNY     63  51  65 VRB3      29.73F

$$

MOZ041-047>049-056>058-063>065-088>090-097-251600-
...EASTERN AND SOUTHERN MISSOURI...

CITY           SKY/WX    TMP DP  RH WIND       PRES   REMARKS
ST. LOUIS INTL MOSUNNY   67  53  61 NW9G20    29.73R
SPIRIT OF STL  MOSUNNY   66  54  65 NW13      29.72S
COLUMBIA       SUNNY     63  51  65 NW5       29.75R
JEFFERSON CITY SUNNY     65  51  60 CALM      29.75S
ROLLA          SUNNY     61  52  72 W7        29.75S
OSAGE BEACH    SUNNY     62  52  69 SW5       29.77
SPRINGFIELD    SUNNY     63  52  67 S8        29.78S
BRANSON        MOSUNNY   64  50  59 S5        29.81R
JOPLIN         SUNNY     68  52  56 S12       29.77R
WEST PLAINS    SUNNY     62  51  67 SW7       29.80S

$$

IAZ060-094-KSZ022-034>040-054-083-096-NEZ052-066-093-251600-
...KANSAS...SOUTHEAST NEBRASKA AND IOWA...

CITY           SKY/WX    TMP DP  RH WIND       PRES   REMARKS
TOPEKA         SUNNY     66  50  56 S16       29.69F
MANHATTAN      SUNNY     67  48  50 S17G26    29.65F
EMPORIA        SUNNY     64  48  56 S20G25    29.68F
CHANUTE        SUNNY     67  48  50 SE21G28   29.72S
WICHITA        MOSUNNY   66  50  56 SE17      29.63F
OMAHA          PTSUNNY   63  49  60 S20       29.65F
LINCOLN        CLOUDY    66  49  54 S18G24    29.63F
FALLS CITY     SUNNY     65  50  58 S13       29.67F
LAMONI         SUNNY     61  52  72 VRB5      29.72R
DES MOINES     MOSUNNY   61  51  70 SE6       29.72R

$$




USA.gov is the U.S. government's official web portal to all federal, state and local government web resources and services.